EZY41VP EGNS-EGGP

Flight info

Callsign EZY41VP
Flight time 0h 21m
Altitude 15000
Route TIMIS Q39 DANDI DCT PENIL
Aircraft A320/M-SDE3FGHIRWY/LB1

Departure

Time 2026-04-29 17:41
Airport Isle of Man Airport (EGNS)

Arrival

Time 2026-04-29 18:03
Airport Liverpool John Lennon Airport (EGGP)
Time Latitude Longitude Altitude Speed Heading
2026-04-29 17:14 54.08629 -4.63266 46 ft 0 kts 224°
2026-04-29 17:22 54.08630 -4.63266 45 ft 0 kts 224°
2026-04-29 17:27 54.08630 -4.63265 45 ft 1 kts 224°
2026-04-29 17:28 54.08647 -4.63240 45 ft 4 kts 208°
2026-04-29 17:28 54.08671 -4.63228 43 ft 4 kts 168°
2026-04-29 17:28 54.08690 -4.63244 44 ft 1 kts 133°
2026-04-29 17:28 54.08691 -4.63244 44 ft 0 kts 133°
2026-04-29 17:34 54.08691 -4.63245 44 ft 0 kts 133°
2026-04-29 17:36 54.08691 -4.63244 44 ft 1 kts 133°
2026-04-29 17:36 54.08652 -4.63174 45 ft 16 kts 133°
2026-04-29 17:36 54.08553 -4.63029 46 ft 12 kts 163°
2026-04-29 17:36 54.08459 -4.62981 43 ft 16 kts 157°
2026-04-29 17:37 54.08402 -4.63079 42 ft 12 kts 251°
2026-04-29 17:37 54.08385 -4.63211 43 ft 11 kts 258°
2026-04-29 17:37 54.08370 -4.63330 43 ft 10 kts 258°
2026-04-29 17:37 54.08357 -4.63436 43 ft 9 kts 258°
2026-04-29 17:38 54.08346 -4.63528 44 ft 7 kts 258°
2026-04-29 17:38 54.08342 -4.63564 45 ft 0 kts 258°
2026-04-29 17:39 54.08342 -4.63563 45 ft 0 kts 258°
2026-04-29 17:39 54.08342 -4.63565 45 ft 2 kts 258°
2026-04-29 17:40 54.08316 -4.63667 44 ft 17 kts 241°
2026-04-29 17:40 54.08258 -4.63848 44 ft 15 kts 239°
2026-04-29 17:40 54.08168 -4.63886 35 ft 13 kts 160°
2026-04-29 17:40 54.08149 -4.63813 35 ft 0 kts 79°
2026-04-29 17:41 54.08158 -4.63738 36 ft 33 kts 78°
2026-04-29 17:41 54.08260 -4.62933 45 ft 102 kts 78°
2026-04-29 17:41 54.08440 -4.61491 303 ft 133 kts 78°
2026-04-29 17:41 54.08636 -4.59945 1118 ft 132 kts 81°
2026-04-29 17:42 54.08837 -4.58427 1875 ft 134 kts 80°
2026-04-29 17:42 54.09062 -4.56804 2301 ft 151 kts 80°
2026-04-29 17:42 54.09110 -4.54914 2623 ft 174 kts 106°
2026-04-29 17:42 54.08381 -4.53121 3048 ft 204 kts 142°
2026-04-29 17:43 54.06987 -4.52067 3559 ft 232 kts 155°
2026-04-29 17:43 54.05429 -4.51134 4390 ft 242 kts 157°
2026-04-29 17:43 54.03817 -4.50207 5306 ft 248 kts 158°
2026-04-29 17:43 54.02159 -4.49258 6212 ft 254 kts 158°
2026-04-29 17:44 54.00471 -4.48282 7115 ft 258 kts 158°
2026-04-29 17:44 53.98784 -4.47298 8016 ft 262 kts 158°
2026-04-29 17:44 53.97024 -4.46264 8942 ft 266 kts 158°
2026-04-29 17:44 53.95264 -4.45223 9868 ft 269 kts 158°
2026-04-29 17:45 53.93477 -4.44164 10598 ft 280 kts 158°
2026-04-29 17:45 53.91561 -4.43026 10939 ft 302 kts 158°
2026-04-29 17:45 53.89542 -4.41811 11583 ft 311 kts 155°
2026-04-29 17:45 53.87642 -4.40073 12397 ft 311 kts 142°
2026-04-29 17:46 53.86034 -4.37621 13231 ft 312 kts 130°
2026-04-29 17:46 53.84755 -4.34649 14075 ft 314 kts 124°
2026-04-29 17:46 53.83530 -4.31627 14796 ft 316 kts 124°
2026-04-29 17:46 53.82274 -4.28545 15182 ft 319 kts 124°
2026-04-29 17:47 53.81014 -4.25467 15285 ft 317 kts 124°
2026-04-29 17:47 53.79789 -4.22473 15303 ft 305 kts 125°
2026-04-29 17:47 53.78587 -4.19548 15307 ft 302 kts 125°
2026-04-29 17:47 53.77392 -4.16641 15312 ft 301 kts 125°
2026-04-29 17:48 53.76196 -4.13732 15310 ft 301 kts 125°
2026-04-29 17:48 53.74999 -4.10824 15307 ft 302 kts 125°
2026-04-29 17:48 53.73797 -4.07918 15310 ft 302 kts 125°
2026-04-29 17:48 53.72594 -4.05015 15308 ft 302 kts 125°
2026-04-29 17:49 53.71389 -4.02110 15314 ft 302 kts 125°
2026-04-29 17:49 53.70185 -3.99206 15309 ft 302 kts 125°
2026-04-29 17:49 53.68981 -3.96297 15313 ft 302 kts 124°
2026-04-29 17:49 53.67997 -3.93177 15312 ft 303 kts 113°
2026-04-29 17:50 53.67207 -3.89821 15310 ft 314 kts 113°
2026-04-29 17:50 53.66388 -3.86362 15313 ft 319 kts 113°
2026-04-29 17:50 53.65561 -3.82884 15312 ft 320 kts 113°
2026-04-29 17:50 53.64730 -3.79397 15298 ft 316 kts 113°
2026-04-29 17:51 53.63922 -3.76017 14876 ft 307 kts 113°
2026-04-29 17:51 53.63128 -3.72705 14177 ft 304 kts 113°
2026-04-29 17:51 53.62336 -3.69418 13387 ft 301 kts 113°
2026-04-29 17:51 53.61382 -3.66319 12615 ft 297 kts 126°
2026-04-29 17:52 53.60002 -3.63759 11910 ft 294 kts 135°
2026-04-29 17:52 53.59015 -3.62176 11610 ft 286 kts 135°
2026-04-29 17:52 53.57171 -3.59200 11077 ft 271 kts 135°
2026-04-29 17:52 53.55844 -3.57049 10706 ft 260 kts 134°
2026-04-29 17:53 53.54975 -3.55640 10454 ft 254 kts 134°
2026-04-29 17:53 53.53706 -3.53585 10090 ft 254 kts 134°
2026-04-29 17:53 53.52431 -3.51520 9703 ft 254 kts 134°
2026-04-29 17:53 53.51159 -3.49464 9320 ft 253 kts 134°
2026-04-29 17:54 53.49908 -3.47445 8943 ft 252 kts 134°
2026-04-29 17:54 53.48658 -3.45338 8560 ft 250 kts 128°
2026-04-29 17:54 53.47722 -3.42937 8189 ft 249 kts 116°
2026-04-29 17:54 53.46978 -3.40325 7814 ft 247 kts 116°
2026-04-29 17:55 53.46246 -3.37778 7677 ft 236 kts 116°
2026-04-29 17:55 53.45553 -3.35376 7603 ft 222 kts 116°
2026-04-29 17:55 53.44897 -3.33107 7516 ft 210 kts 116°
2026-04-29 17:55 53.44268 -3.30929 7424 ft 205 kts 116°
2026-04-29 17:56 53.43575 -3.28794 7003 ft 212 kts 126°
2026-04-29 17:56 53.42512 -3.27045 6528 ft 218 kts 139°
2026-04-29 17:56 53.41338 -3.25471 6038 ft 214 kts 139°
2026-04-29 17:56 53.40190 -3.23922 5542 ft 210 kts 138°
2026-04-29 17:57 53.39060 -3.22395 5076 ft 207 kts 138°
2026-04-29 17:57 53.37941 -3.20887 4559 ft 205 kts 137°
2026-04-29 17:57 53.36838 -3.19396 4051 ft 203 kts 137°
2026-04-29 17:57 53.35745 -3.17916 3547 ft 201 kts 136°
2026-04-29 17:58 53.34661 -3.16455 3017 ft 199 kts 135°
2026-04-29 17:58 53.33585 -3.15004 2575 ft 196 kts 135°
2026-04-29 17:58 53.32713 -3.13389 2507 ft 182 kts 117°
2026-04-29 17:58 53.32259 -3.11518 2509 ft 169 kts 101°
2026-04-29 17:59 53.32197 -3.09609 2504 ft 163 kts 87°
2026-04-29 17:59 53.32288 -3.07727 2488 ft 163 kts 87°
2026-04-29 17:59 53.32379 -3.05848 2368 ft 161 kts 86°
2026-04-29 17:59 53.32469 -3.03986 2161 ft 156 kts 86°
2026-04-29 18:00 53.32551 -3.02274 1987 ft 138 kts 87°
2026-04-29 18:00 53.32625 -3.00735 1775 ft 128 kts 86°
2026-04-29 18:00 53.32694 -2.99273 1607 ft 125 kts 85°
2026-04-29 18:00 53.32763 -2.97820 1444 ft 125 kts 87°
2026-04-29 18:01 53.32830 -2.96382 1269 ft 123 kts 86°
2026-04-29 18:01 53.32897 -2.94958 1109 ft 122 kts 85°
2026-04-29 18:01 53.32964 -2.93547 963 ft 122 kts 86°
2026-04-29 18:01 53.33039 -2.92126 785 ft 124 kts 87°
2026-04-29 18:02 53.33105 -2.90675 635 ft 124 kts 85°
2026-04-29 18:02 53.33167 -2.89240 429 ft 124 kts 84°
2026-04-29 18:02 53.33240 -2.87807 252 ft 123 kts 87°
2026-04-29 18:02 53.33302 -2.86371 107 ft 123 kts 86°
2026-04-29 18:03 53.33357 -2.85122 90 ft 87 kts 86°
2026-04-29 18:03 53.33383 -2.84558 92 ft 27 kts 85°
2026-04-29 18:03 53.33398 -2.84238 89 ft 29 kts 86°
2026-04-29 18:03 53.33413 -2.83891 91 ft 30 kts 86°
2026-04-29 18:04 53.33448 -2.83632 92 ft 18 kts 27°
2026-04-29 18:04 53.33570 -2.83646 89 ft 20 kts 338°
2026-04-29 18:04 53.33587 -2.83752 89 ft 14 kts 266°
2026-04-29 18:04 53.33576 -2.83972 90 ft 20 kts 265°
2026-04-29 18:05 53.33566 -2.84197 89 ft 19 kts 265°
2026-04-29 18:05 53.33556 -2.84410 91 ft 18 kts 265°
2026-04-29 18:05 53.33547 -2.84593 89 ft 14 kts 265°
2026-04-29 18:05 53.33539 -2.84744 92 ft 12 kts 265°
2026-04-29 18:06 53.33532 -2.84882 90 ft 11 kts 265°
2026-04-29 18:06 53.33529 -2.84996 89 ft 6 kts 268°
2026-04-29 18:06 53.33544 -2.85058 91 ft 6 kts 332°
2026-04-29 18:06 53.33583 -2.85070 89 ft 5 kts 337°
2026-04-29 18:07 53.33589 -2.85115 89 ft 4 kts 269°
2026-04-29 18:07 53.33587 -2.85160 89 ft 5 kts 265°
2026-04-29 18:07 53.33586 -2.85184 89 ft 0 kts 265°